N61557 KBBW-KOMA

Flight info

Callsign N61557
Flight time 0h 41m
Altitude 15000
Route CUZ GRI HOWRY3
Aircraft C700/M-SBDGHM1RWXY/LB2

Departure

Time 2026-05-09 03:14
Airport Broken Bow Municipal Airport (KBBW)

Arrival

Time 2026-05-09 03:55
Airport Eppley Airfield (KOMA)
Time Latitude Longitude Altitude Speed Heading
2026-05-09 02:56 41.43275 -99.63651 2526 ft 0 kts
2026-05-09 03:09 41.43276 -99.63652 2526 ft 1 kts 343°
2026-05-09 03:09 41.43276 -99.63660 2526 ft 1 kts 255°
2026-05-09 03:10 41.43255 -99.63666 2519 ft 6 kts 188°
2026-05-09 03:10 41.43247 -99.63703 2522 ft 6 kts 274°
2026-05-09 03:10 41.43213 -99.63751 2518 ft 9 kts 212°
2026-05-09 03:10 41.43188 -99.63777 2523 ft 0 kts 226°
2026-05-09 03:12 41.43183 -99.63784 2523 ft 6 kts 227°
2026-05-09 03:12 41.43178 -99.63842 2522 ft 7 kts 319°
2026-05-09 03:13 41.43448 -99.64061 2522 ft 83 kts 328°
2026-05-09 03:13 41.44224 -99.64667 2645 ft 164 kts 332°
2026-05-09 03:13 41.45490 -99.65160 3061 ft 205 kts 357°
2026-05-09 03:14 41.46890 -99.65066 4118 ft 201 kts 20°
2026-05-09 03:14 41.47869 -99.63752 5127 ft 211 kts 64°
2026-05-09 03:14 41.47884 -99.61775 6041 ft 225 kts 108°
2026-05-09 03:14 41.46898 -99.60175 6928 ft 232 kts 143°
2026-05-09 03:15 41.45580 -99.58880 7761 ft 238 kts 141°
2026-05-09 03:15 41.44380 -99.57340 8601 ft 242 kts 130°
2026-05-09 03:15 41.43478 -99.55421 9591 ft 246 kts 115°
2026-05-09 03:15 41.42803 -99.53292 10478 ft 252 kts 111°
2026-05-09 03:16 41.42092 -99.51124 11348 ft 258 kts 114°
2026-05-09 03:16 41.41301 -99.48951 12185 ft 264 kts 115°
2026-05-09 03:16 41.40498 -99.46759 12990 ft 269 kts 114°
2026-05-09 03:16 41.39686 -99.44485 13786 ft 274 kts 113°
2026-05-09 03:17 41.38861 -99.42167 14477 ft 278 kts 113°
2026-05-09 03:17 41.38026 -99.39836 15010 ft 290 kts 113°
2026-05-09 03:17 41.37103 -99.37259 14992 ft 318 kts 114°
2026-05-09 03:17 41.36453 -99.35450 14997 ft 325 kts 114°
2026-05-09 03:18 41.35518 -99.32867 14978 ft 293 kts 114°
2026-05-09 03:18 41.34404 -99.29780 14971 ft 274 kts 113°
2026-05-09 03:18 41.33844 -99.28212 14977 ft 281 kts 113°
2026-05-09 03:18 41.32989 -99.25829 14988 ft 286 kts 113°
2026-05-09 03:19 41.32127 -99.23446 14990 ft 286 kts 114°
2026-05-09 03:19 41.31280 -99.21105 14990 ft 286 kts 113°
2026-05-09 03:19 41.30432 -99.18755 14989 ft 285 kts 113°
2026-05-09 03:19 41.29572 -99.16377 14989 ft 285 kts 113°
2026-05-09 03:20 41.28715 -99.14008 14989 ft 285 kts 113°
2026-05-09 03:20 41.27861 -99.11651 14990 ft 284 kts 114°
2026-05-09 03:20 41.27007 -99.09293 14990 ft 284 kts 114°
2026-05-09 03:20 41.26201 -99.07072 14982 ft 287 kts 114°
2026-05-09 03:21 41.25334 -99.04683 14986 ft 287 kts 114°
2026-05-09 03:21 41.24465 -99.02286 14987 ft 288 kts 113°
2026-05-09 03:21 41.23605 -98.99890 14985 ft 288 kts 112°
2026-05-09 03:21 41.23148 -98.97407 14946 ft 274 kts 80°
2026-05-09 03:22 41.22803 -98.94940 14961 ft 286 kts 123°
2026-05-09 03:22 41.21463 -98.92965 14983 ft 291 kts 136°
2026-05-09 03:22 41.20138 -98.90943 14980 ft 288 kts 121°
2026-05-09 03:22 41.19261 -98.88579 14983 ft 283 kts 109°
2026-05-09 03:23 41.18547 -98.86148 14985 ft 284 kts 109°
2026-05-09 03:23 41.17759 -98.83749 14985 ft 286 kts 113°
2026-05-09 03:23 41.16861 -98.81401 14985 ft 287 kts 115°
2026-05-09 03:23 41.15962 -98.79040 14988 ft 287 kts 114°
2026-05-09 03:24 41.15108 -98.76686 14984 ft 288 kts 113°
2026-05-09 03:24 41.14253 -98.74324 14984 ft 287 kts 114°
2026-05-09 03:24 41.13377 -98.71945 14983 ft 287 kts 114°
2026-05-09 03:24 41.12502 -98.69570 14980 ft 288 kts 114°
2026-05-09 03:25 41.11621 -98.67177 14985 ft 287 kts 114°
2026-05-09 03:25 41.10749 -98.64804 14985 ft 287 kts 114°
2026-05-09 03:25 41.09868 -98.62412 14986 ft 287 kts 114°
2026-05-09 03:25 41.08998 -98.60056 14985 ft 287 kts 114°
2026-05-09 03:26 41.08126 -98.57692 14983 ft 287 kts 114°
2026-05-09 03:26 41.07252 -98.55326 14984 ft 287 kts 114°
2026-05-09 03:26 41.06363 -98.52917 14986 ft 299 kts 114°
2026-05-09 03:26 41.05408 -98.50326 14998 ft 324 kts 114°
2026-05-09 03:27 41.04403 -98.47617 14993 ft 329 kts 114°
2026-05-09 03:27 41.03394 -98.44906 14984 ft 327 kts 114°
2026-05-09 03:27 41.02386 -98.42187 15018 ft 330 kts 114°
2026-05-09 03:27 41.01374 -98.39458 15021 ft 330 kts 114°
2026-05-09 03:28 41.00362 -98.36736 15006 ft 331 kts 114°
2026-05-09 03:28 40.99544 -98.33906 15010 ft 327 kts 99°
2026-05-09 03:28 40.99246 -98.30977 15009 ft 321 kts 86°
2026-05-09 03:28 40.99440 -98.28031 15009 ft 315 kts 72°
2026-05-09 03:29 41.00061 -98.25320 15010 ft 309 kts 63°
2026-05-09 03:29 41.00793 -98.22640 15009 ft 310 kts 63°
2026-05-09 03:29 41.01511 -98.19951 15009 ft 311 kts 64°
2026-05-09 03:29 41.02237 -98.17232 15003 ft 311 kts 64°
2026-05-09 03:30 41.02949 -98.14580 14998 ft 309 kts 63°
2026-05-09 03:30 41.03666 -98.11908 14992 ft 308 kts 63°
2026-05-09 03:30 41.04385 -98.09226 14990 ft 309 kts 63°
2026-05-09 03:30 41.05102 -98.06545 14990 ft 310 kts 64°
2026-05-09 03:31 41.05814 -98.03878 14993 ft 310 kts 64°
2026-05-09 03:31 41.06541 -98.01148 14994 ft 311 kts 64°
2026-05-09 03:31 41.07250 -97.98488 14995 ft 309 kts 64°
2026-05-09 03:31 41.07968 -97.95792 14992 ft 310 kts 64°
2026-05-09 03:32 41.08687 -97.93086 14983 ft 309 kts 64°
2026-05-09 03:32 41.09398 -97.90407 14981 ft 309 kts 64°
2026-05-09 03:32 41.10116 -97.87700 14983 ft 310 kts 64°
2026-05-09 03:32 41.10830 -97.85007 14980 ft 310 kts 64°
2026-05-09 03:33 41.11545 -97.82291 14971 ft 311 kts 65°
2026-05-09 03:33 41.11940 -97.79466 14954 ft 319 kts 79°
2026-05-09 03:33 41.12068 -97.76530 15004 ft 320 kts 83°
2026-05-09 03:33 41.12168 -97.73567 15004 ft 321 kts 81°
2026-05-09 03:34 41.12345 -97.70649 15007 ft 318 kts 79°
2026-05-09 03:34 41.12543 -97.67737 15006 ft 318 kts 80°
2026-05-09 03:34 41.12713 -97.64798 15006 ft 318 kts 81°
2026-05-09 03:34 41.12871 -97.61866 15006 ft 319 kts 80°
2026-05-09 03:35 41.13036 -97.58931 15015 ft 319 kts 80°
2026-05-09 03:35 41.13205 -97.56028 15014 ft 320 kts 81°
2026-05-09 03:35 41.13374 -97.53067 15013 ft 320 kts 81°
2026-05-09 03:35 41.13537 -97.50139 15012 ft 315 kts 81°
2026-05-09 03:36 41.13686 -97.47352 14980 ft 296 kts 80°
2026-05-09 03:36 41.13845 -97.44599 14984 ft 298 kts 80°
2026-05-09 03:36 41.14006 -97.41811 14984 ft 308 kts 80°
2026-05-09 03:36 41.14167 -97.38923 14998 ft 316 kts 81°
2026-05-09 03:37 41.14319 -97.36082 14997 ft 316 kts 81°
2026-05-09 03:37 41.14476 -97.33159 14998 ft 316 kts 81°
2026-05-09 03:37 41.14635 -97.30265 14997 ft 315 kts 81°
2026-05-09 03:37 41.14794 -97.27361 14992 ft 315 kts 81°
2026-05-09 03:38 41.14951 -97.24466 14991 ft 314 kts 81°
2026-05-09 03:38 41.15103 -97.21610 14990 ft 314 kts 81°
2026-05-09 03:38 41.15258 -97.18708 14989 ft 314 kts 81°
2026-05-09 03:38 41.15411 -97.15861 14988 ft 313 kts 81°
2026-05-09 03:39 41.15564 -97.12973 14986 ft 313 kts 81°
2026-05-09 03:39 41.15716 -97.10088 14985 ft 313 kts 81°
2026-05-09 03:39 41.15868 -97.07193 14983 ft 313 kts 81°
2026-05-09 03:39 41.16019 -97.04295 14982 ft 313 kts 81°
2026-05-09 03:40 41.16167 -97.01454 14965 ft 309 kts 81°
2026-05-09 03:40 41.16304 -96.98681 13641 ft 299 kts 81°
2026-05-09 03:40 41.16451 -96.95950 12139 ft 298 kts 82°
2026-05-09 03:40 41.16590 -96.93245 10813 ft 289 kts 83°
2026-05-09 03:41 41.16723 -96.90632 10002 ft 271 kts 83°
2026-05-09 03:41 41.16839 -96.88245 9968 ft 258 kts 83°
2026-05-09 03:41 41.16972 -96.85777 9988 ft 278 kts 83°
2026-05-09 03:41 41.17105 -96.83172 9981 ft 276 kts 83°
2026-05-09 03:42 41.17222 -96.80704 8652 ft 271 kts 83°
2026-05-09 03:42 41.17348 -96.78218 7349 ft 269 kts 83°
2026-05-09 03:42 41.17467 -96.75815 6187 ft 261 kts 83°
2026-05-09 03:42 41.17586 -96.73419 5116 ft 253 kts 83°
2026-05-09 03:43 41.17691 -96.71232 5025 ft 230 kts 83°
2026-05-09 03:43 41.17804 -96.69026 5040 ft 249 kts 83°
2026-05-09 03:43 41.17921 -96.66686 5048 ft 256 kts 84°
2026-05-09 03:43 41.18034 -96.64322 5042 ft 257 kts 84°
2026-05-09 03:44 41.18148 -96.61948 5046 ft 257 kts 84°
2026-05-09 03:44 41.18262 -96.59593 5045 ft 257 kts 84°
2026-05-09 03:44 41.18377 -96.57224 5045 ft 257 kts 84°
2026-05-09 03:44 41.18491 -96.54846 5009 ft 257 kts 84°
2026-05-09 03:45 41.18602 -96.52492 5005 ft 257 kts 84°
2026-05-09 03:45 41.18716 -96.50114 5005 ft 258 kts 84°
2026-05-09 03:45 41.18827 -96.47758 5005 ft 258 kts 84°
2026-05-09 03:45 41.18940 -96.45374 4993 ft 259 kts 84°
2026-05-09 03:46 41.19052 -96.42985 5004 ft 260 kts 84°
2026-05-09 03:46 41.19163 -96.40596 5007 ft 258 kts 84°
2026-05-09 03:46 41.19274 -96.38221 5006 ft 257 kts 84°
2026-05-09 03:46 41.19383 -96.35852 4997 ft 257 kts 84°
2026-05-09 03:47 41.19493 -96.33473 5008 ft 258 kts 84°
2026-05-09 03:47 41.19603 -96.31088 5013 ft 259 kts 84°
2026-05-09 03:47 41.19712 -96.28696 5017 ft 260 kts 84°
2026-05-09 03:47 41.19819 -96.26320 5022 ft 260 kts 84°
2026-05-09 03:48 41.19928 -96.23921 5028 ft 259 kts 84°
2026-05-09 03:48 41.20035 -96.21537 5026 ft 258 kts 84°
2026-05-09 03:48 41.20143 -96.19147 5024 ft 258 kts 84°
2026-05-09 03:48 41.20249 -96.16772 5024 ft 257 kts 84°
2026-05-09 03:49 41.20354 -96.14401 5021 ft 257 kts 84°
2026-05-09 03:49 41.20458 -96.12051 5017 ft 258 kts 84°
2026-05-09 03:49 41.20563 -96.09669 5022 ft 259 kts 84°
2026-05-09 03:49 41.20669 -96.07259 5029 ft 261 kts 84°
2026-05-09 03:50 41.20772 -96.04875 5025 ft 261 kts 84°
2026-05-09 03:50 41.20876 -96.02475 5025 ft 260 kts 84°
2026-05-09 03:50 41.20980 -96.00064 5026 ft 260 kts 84°
2026-05-09 03:50 41.20954 -95.97656 4972 ft 263 kts 97°
2026-05-09 03:51 41.20414 -95.95348 4635 ft 265 kts 112°
2026-05-09 03:51 41.19681 -95.93146 4294 ft 261 kts 113°
2026-05-09 03:51 41.18975 -95.90944 3945 ft 257 kts 110°
2026-05-09 03:51 41.18733 -95.88651 3605 ft 251 kts 83°
2026-05-09 03:52 41.19234 -95.86459 3276 ft 246 kts 59°
2026-05-09 03:52 41.20341 -95.84773 3007 ft 240 kts 34°
2026-05-09 03:52 41.21832 -95.83839 3010 ft 236 kts 12°
2026-05-09 03:52 41.23415 -95.83745 3011 ft 234 kts 350°
2026-05-09 03:53 41.24683 -95.84305 2973 ft 156 kts 330°
2026-05-09 03:53 41.25501 -95.85037 2938 ft 131 kts 321°
2026-05-09 03:53 41.26268 -95.85802 2964 ft 136 kts 319°
2026-05-09 03:53 41.27057 -95.86642 2460 ft 151 kts 321°
2026-05-09 03:54 41.27923 -95.87386 1813 ft 147 kts 329°
2026-05-09 03:54 41.28735 -95.88097 1262 ft 138 kts 323°
2026-05-09 03:54 41.29490 -95.88790 1003 ft 121 kts 324°
2026-05-09 03:54 41.30036 -95.89357 983 ft 77 kts 304°
2026-05-09 03:55 41.30427 -95.89717 984 ft 23 kts 337°
2026-05-09 03:55 41.30544 -95.89812 980 ft 2 kts 312°
2026-05-09 03:55 41.30550 -95.89875 979 ft 13 kts 262°
2026-05-09 03:56 41.30531 -95.89900 983 ft 0 kts 210°
2026-05-09 03:56 41.30528 -95.89906 979 ft 3 kts 230°
2026-05-09 03:56 41.30491 -95.89931 980 ft 8 kts 177°
2026-05-09 03:56 41.30430 -95.89883 983 ft 13 kts 145°
2026-05-09 03:57 41.30330 -95.89788 987 ft 21 kts 144°
2026-05-09 03:57 41.30201 -95.89666 983 ft 25 kts 144°
2026-05-09 03:57 41.30116 -95.89605 981 ft 11 kts 180°
2026-05-09 03:57 41.30014 -95.89603 978 ft 17 kts 181°
2026-05-09 03:58 41.29892 -95.89604 978 ft 18 kts 179°
2026-05-09 03:58 41.29797 -95.89644 979 ft 12 kts 242°
2026-05-09 03:58 41.29745 -95.89734 979 ft 15 kts 193°
2026-05-09 03:58 41.29630 -95.89758 980 ft 18 kts 189°
2026-05-09 03:59 41.29571 -95.89812 980 ft 0 kts 163°
2026-05-09 03:59 41.29569 -95.89812 980 ft 0 kts 180°